STARLINK-3874, 52365

Orbit data source: Space-Track

STARLINK-3874, 52365 is a payload satellite owned by SpaceX/Seattle (US) in LEO that was launched on Fri, 29 Apr 2022 UTC via an FALCON 9 launch vehicle from the Air Force Eastern Test Range (AFETR). Payload-class satellites include a variety of spacecraft equipped with specific instruments for various scientific and technological missions. These include communications satellites like Starlink; space stations such as the ISS; scientific satellites like the Hubble; Earth observation satellites from companies like Planet Labs, Umbra, and HawkEye 360; GPS; miniature CubeSats for education and research; and military/defense satellites.

Loading next visibility...
Identifier
52365, 2022-045AL
Orbit
LEO
Country
Flag of USUS
Related business
Manufacturer
SpaceX/Seattle
Mission
Operational Commercial Communications
Bus & Motor
STARLINK, Unknown motor
Mass
297 kg wet, ~275 kg dry
Launch date (UTC)
2022-04-29 (4 years ago)
Launch vehicle
FALCON 9
Launch site
Air Force Eastern Test Range (AFETR)
Object type
Payload
Rocket body
Debris
Shape & HBR
Box + 1 Pan, 10.1 m
Radar Cross Section
11.087 m², Large (>1 m²)

Expand to show TLE details & history
Last TLE update: 3 days ago

TLE from 3 days ago
0 STARLINK-3874
1 52365U 22045AL  26170.93509067 -.00001247  00000-0 -60306-4 0  9994
2 52365  53.1613  90.0125 0001225  91.3588 268.7544 15.08815804231353
Epoch: 2026-06-19T22:26Z
TLE epoch observation values (Epoch: 2026-06-19T22:26:31.833Z)
Latitude
-0.00002°
Longitude
-154.77709°
Altitude
540.727 km
Speed
7.593 km/s
True Right ascension
06h 00m 02s
True Declination
0° 00' 00"
Sunlit
Object was in daylight at epoch
Visualization orbit readout
Latitude
Unknown
Longitude
Unknown
Altitude
Unknown
Speed
Unknown
Apparent Right ascension
Unknown
Apparent Declination
Unknown
Sunlit
N/A
Visualization observer readout
Local Sidereal Time
21:40:28
Azimuth
Unknown
Elevation
Unknown
Doppler factor
Unknown
Orbital elements
Apogee altitude
540.919 km
Perigee altitude
539.224 km
Semi-major axis
6,918.208 km
Eccentricity
0.00012
Inclination
53.1613°
RAAN
90.0125°
Arg. of periapsis
91.3588°
True anomaly
268.74037°
Mean anomaly
268.7544°
Eccentric anomaly
268.74738°
Mean motion
3.77184 °/min
Orbital period
95.44 mins
BSTAR
-0.000060306
Loading maneuver chart data...
Computing Atmospheric mass density...
Loading historical data...
Loading historical data...
Loading historical data...
Loading historical data...
Loading historical data...
Loading historical data...
Loading historical data...

Documentation

Showing up to 5 results
|